STARLINK-30051 (55704 NORAD) Tracking and Keplerian Element Data

This shows tracking and keplerian element data for the satellite.

Feedback or suggestion? Click here.




ElementValue
Catalog55704
NameSTARLINK-30051
Epoch Orbit130
Epoch Day62.91667824
Epoch Year2023
RAAN259.6139
Inclination43.0103
Eccentricity0.0001507
Argument of Perigee275.1565
Mean Anonmoly185.6765
Mean Motion15.65624889
Decay Rate-0.00795132
L11 55704U 23026K 23062.91667824 -.00795132 00000+0 -84508-2 0 9995
L22 55704 43.0103 259.6139 0001507 275.1565 185.6765 15.65624889 1309



Live tracking and technical data element details for STARLINK-30051 (NORAD 55704). STARLINK-30051 can be tracked NOW for your location showing map with azimuth and elevation plus other details from your city location.







IsCatalogInMostPopularTable: catalog: 55704, numindb: 1
Update: records affected: 1



GetName: 55704 STARLINK-30051

Hit Count: updated at: Wed, 22 Mar 2023 16:55:59 GMT